User: anonymous   Login
Location: Caltech
(34.1382°N, 118.1253°W)
Time: 13:14:58
(UTC-08:00)
Language:

Meteor 2-4 Rocket - Orbit

View from above orbital plane
View from above orbital plane
View from above satellite
View from above satellite

Ground track
Ground track

The orbit data is extracted from the following two-line orbital elements,

1 11289U 79021B   16041.78874951 +.00000126 +00000-0 +60714-4 0  9992
2 11289 081.2465 284.5189 0075571 190.0622 169.9042 14.11531486901107
Epoch (UTC): 10 February 2016 18:55:47
Eccentricity: 0.0075571
inclination: 81.2465°
perigee height: 799 km
apogee height: 909 km
right ascension of ascending node: 284.5189°
argument of perigee: 190.0622°
revolutions per day: 14.11531486
mean anomaly at epoch: 169.9042°
orbit number at epoch: 90110

The dashed part of the orbit path shows where the satellite is in the earth's shadow,  

DLR